Date,TemperatureHighF,TemperatureAvgF,TemperatureLowF,DewpointHighF,DewpointAvgF,DewpointLowF,HumidityHigh,HumidityAvg,HumidityLow,PressureMaxIn,PressureMinIn,WindSpeedMaxMPH,WindSpeedAvgMPH,GustSpeedMaxMPH,PrecipitationSumIn
2013-1-1,38.3,34.7,25.6,29.8,25.0,13.3,76,68,57,30.05,29.87,8,2,8,0.03
2013-1-2,32.0,26.1,21.2,16.7,14.4,11.3,69,61,52,30.21,30.01,7,1,11,0.24
2013-1-3,32.2,26.9,19.8,21.2,16.5,12.8,78,65,53,30.22,30.09,4,1,6,0.23
2013-1-4,36.9,32.6,28.8,24.4,22.3,19.7,73,66,59,30.12,29.99,8,2,9,0.25
2013-1-5,41.6,35.2,30.1,24.9,22.0,18.5,67,59,49,30.32,30.05,11,2,13,0.19
2013-1-8,33.5,31.1,28.1,26.6,24.3,22.4,81,76,70,30.42,30.40,1,0,1,0.05
2013-1-9,43.6,35.7,24.8,37.1,29.9,20.9,87,80,67,30.42,30.17,4,0,5,0.25
2013-1-10,47.2,40.8,32.8,33.0,27.0,22.1,71,58,44,30.58,30.27,8,1,8,0.24
2013-1-11,42.3,38.2,32.6,38.8,31.2,24.2,89,76,67,30.57,30.13,3,0,3,1.34
2013-1-12,48.8,43.5,40.0,46.3,41.1,37.8,94,91,88,30.20,30.12,2,0,3,0.17
2013-1-13,46.8,46.8,46.8,45.2,45.2,45.2,94,94,94,30.09,30.09,0,0,0,0.00
2013-1-14,54.0,46.3,38.2,43.2,35.3,29.4,79,66,54,30.33,30.14,6,1,7,0.26
2013-1-15,38.2,36.1,34.2,32.0,30.4,28.4,87,80,74,30.38,30.24,4,0,4,0.18
2013-1-16,34.7,32.9,31.3,33.2,30.4,28.1,95,90,80,30.24,29.86,4,0,5,2.45
2013-1-17,42.3,36.9,34.2,33.0,30.0,24.5,93,76,61,30.13,29.95,7,1,9,0.48
2013-1-18,34.2,27.5,22.1,25.2,15.0,7.4,74,60,41,30.48,30.03,8,1,9,0.25
2013-1-19,47.5,36.1,22.7,32.3,24.9,13.7,79,64,50,30.42,29.96,6,1,6,0.36
2013-1-20,51.3,38.4,28.1,35.8,23.3,13.2,85,57,29,30.07,29.75,11,2,11,0.24
2013-1-21,30.4,26.8,21.2,18.9,14.4,9.5,74,59,49,30.11,29.87,5,1,7,0.25
2013-1-22,24.7,17.9,11.7,11.4,2.8,-3.8,65,52,39,30.22,29.86,8,2,8,0.24
2013-1-23,19.3,13.3,9.0,3.2,-0.9,-4.0,66,53,41,30.26,30.17,8,1,8,0.18
2013-1-24,23.0,18.2,11.9,5.7,2.2,-0.4,69,50,37,30.43,30.14,8,2,14,0.07
2013-1-25,25.6,16.7,11.3,12.9,5.5,-1.3,79,61,47,30.43,30.08,5,1,5,0.24
2013-1-26,26.8,19.1,9.0,12.2,8.1,2.8,82,63,48,30.40,30.06,9,1,10,0.25
2013-1-27,34.2,22.8,10.4,16.2,10.3,3.1,79,60,41,30.55,30.40,11,1,11,0.23
2013-1-28,33.5,28.5,19.1,31.1,23.1,9.1,92,80,65,30.51,30.04,3,0,3,0.27
2013-1-29,55.3,41.5,33.5,48.2,37.3,30.5,94,86,69,30.17,30.04,4,0,5,0.55
2013-1-30,61.9,47.0,38.5,59.6,45.0,36.3,97,93,90,30.11,29.39,8,0,8,0.77
2013-1-31,61.0,43.9,27.4,60.0,33.5,11.7,98,68,44,29.82,29.10,12,4,13,1.55
2013-2-1,30.4,25.5,21.1,18.9,13.8,5.5,81,62,38,30.25,29.81,8,2,11,0.24
2013-2-2,30.4,21.3,15.7,17.8,11.4,7.2,82,66,48,30.31,30.06,5,1,7,0.25
2013-2-3,32.9,24.7,19.1,23.8,17.9,13.2,84,76,64,30.06,29.83,3,0,4,0.24
2013-2-4,28.8,24.3,19.8,20.0,12.7,10.5,85,62,48,30.00,29.85,8,2,8,0.25
2013-2-5,30.8,28.1,24.5,26.3,21.9,15.0,88,77,67,29.99,29.92,4,0,4,0.23
2013-2-6,37.4,31.7,24.5,27.9,21.7,12.3,91,68,47,30.38,29.94,10,1,10,0.25
2013-2-7,35.8,27.3,19.1,21.1,15.2,10.5,72,60,53,30.51,30.34,3,1,6,0.25
2013-2-8,33.8,31.4,28.4,30.9,27.0,18.2,91,84,65,30.34,29.70,11,3,14,0.24
2013-2-9,32.4,27.1,18.5,27.8,16.4,7.7,91,66,43,30.37,29.80,8,1,11,0.14
2013-2-10,51.3,29.5,15.8,33.2,15.8,7.7,76,58,34,30.49,30.34,5,1,6,0.54
2013-2-11,43.0,35.4,27.7,41.9,31.2,18.2,97,85,67,30.35,29.71,2,0,3,0.30
2013-2-12,41.8,38.8,33.1,37.3,27.5,24.0,93,64,54,30.01,29.77,7,2,9,0.36
2013-2-13,50.6,35.2,22.7,36.7,25.5,17.0,84,69,50,29.99,29.72,5,0,5,0.00
2013-2-14,47.7,36.3,28.4,32.9,27.9,21.9,92,73,51,30.04,29.75,4,0,5,0.21
2013-2-15,58.0,40.2,27.0,41.9,29.1,21.6,89,66,44,30.05,29.95,6,1,6,0.26
2013-2-16,35.5,33.4,28.3,32.1,24.2,13.2,88,69,52,30.01,29.79,8,2,9,0.17
2013-2-17,30.1,25.1,16.9,13.3,7.9,2.4,61,48,38,30.04,29.72,14,4,17,0.24
2013-2-18,33.8,24.5,15.5,14.8,8.8,3.3,61,51,39,30.28,30.04,8,2,12,0.25
2013-2-19,43.7,33.3,23.0,39.0,25.0,12.8,95,72,56,30.22,29.73,7,1,7,0.24
2013-2-20,35.8,28.6,23.6,25.2,15.5,11.0,70,58,49,30.02,29.77,11,3,12,0.40
2013-2-21,32.8,26.6,22.3,17.8,14.5,11.2,70,60,50,30.32,30.00,12,3,13,0.00
2013-2-22,38.5,30.2,21.4,26.8,21.1,13.4,77,69,59,30.41,30.29,9,1,10,0.00
2013-2-23,40.3,36.1,33.3,37.9,33.0,27.1,93,88,78,30.30,29.86,6,1,7,1.01
2013-2-24,45.2,37.6,31.9,38.3,31.2,22.1,94,78,62,30.03,29.80,10,2,10,1.78
2013-2-25,41.9,35.7,30.6,29.9,26.7,22.0,79,70,60,30.27,30.03,10,1,13,1.94
2013-2-26,44.3,35.8,27.4,35.0,29.3,22.9,92,77,65,30.31,29.90,8,2,10,1.98
2013-2-27,47.9,41.4,34.7,46.6,38.1,32.6,96,88,76,29.91,29.55,11,2,13,1.32
2013-2-28,48.6,39.6,34.9,39.3,32.4,28.4,93,76,57,29.67,29.60,6,1,6,0.00
2013-3-1,43.6,37.3,32.9,31.0,29.0,25.4,84,72,58,29.83,29.66,13,2,13,0.00
2013-3-2,36.9,32.2,29.9,25.9,23.8,21.6,78,71,62,29.83,29.77,8,2,11,0.00
2013-3-3,36.7,30.8,27.5,22.7,20.0,17.3,72,64,54,29.82,29.72,11,3,11,0.00
2013-3-4,40.0,32.6,26.3,22.8,20.3,16.4,72,61,48,29.96,29.81,9,3,14,0.00
2013-3-5,49.7,38.9,30.4,32.7,25.5,21.8,71,59,46,30.06,29.95,9,1,10,0.00
2013-3-6,42.5,38.2,35.1,33.7,30.2,25.8,83,73,66,30.01,29.88,12,3,17,0.03
2013-3-7,41.0,36.5,32.8,33.3,29.1,25.6,89,75,63,30.12,29.97,12,4,13,0.27
2013-3-8,43.0,35.1,29.7,35.0,29.3,26.1,90,80,64,30.25,30.04,11,4,17,0.46
2013-3-9,58.0,41.5,31.3,29.0,23.5,19.5,70,52,24,30.35,30.20,11,2,11,0.22
2013-3-10,58.3,40.9,28.1,39.6,29.1,19.3,82,64,44,30.41,30.31,7,1,7,0.24
2013-3-11,56.9,44.7,35.6,48.0,39.0,29.7,90,81,59,30.35,30.13,5,1,6,0.19
2013-3-12,56.9,51.3,42.1,55.2,47.9,36.6,95,88,77,30.12,29.72,10,2,10,12.51
2013-3-13,49.1,41.6,34.0,36.7,30.5,25.2,87,66,41,29.93,29.85,6,2,9,13.73
2013-3-14,40.7,33.5,28.6,25.4,14.8,8.6,67,47,31,30.00,29.89,8,3,11,0.00
2013-3-15,45.2,36.7,26.3,31.4,21.5,13.3,66,54,45,30.01,29.75,8,2,10,0.00
2013-3-16,41.0,34.3,29.7,30.5,25.9,21.4,81,71,60,29.95,29.81,4,0,5,0.27
2013-3-17,37.1,32.3,27.5,27.5,20.4,16.3,83,62,47,30.33,29.95,7,2,12,0.84
2013-3-18,35.3,29.6,23.8,29.1,19.8,12.2,89,67,55,30.42,30.02,6,2,8,0.98
2013-3-19,46.1,38.4,31.9,36.6,31.8,18.2,92,78,48,30.01,29.73,6,2,9,6.65
2013-3-20,44.1,36.3,29.7,23.8,20.7,18.2,66,54,38,29.92,29.81,8,2,8,13.41
2013-3-21,38.2,32.6,29.0,26.6,18.8,13.4,80,58,39,29.88,29.67,9,2,9,13.40
2013-3-22,40.0,32.5,25.7,23.6,19.0,12.2,72,58,45,29.93,29.76,8,2,9,13.41
2013-3-23,45.2,37.5,31.3,24.1,21.6,18.9,66,53,39,29.98,29.88,11,2,12,13.41
2013-3-24,44.3,33.2,24.5,25.9,19.9,15.6,73,59,44,29.99,29.86,9,1,9,7.26
2013-3-26,38.0,35.7,34.0,25.3,24.7,24.4,68,64,60,29.92,29.91,0,0,0,0.00
2013-3-27,50.2,41.0,29.2,32.9,27.7,20.8,78,60,37,30.04,29.91,10,2,19,0.00
2013-3-28,49.9,42.4,34.9,32.3,30.5,28.1,78,63,48,30.16,30.00,10,2,12,5.28
2013-3-29,54.2,44.3,35.3,32.7,29.0,24.7,68,56,39,30.19,30.12,12,2,12,15.85
2013-3-30,60.8,43.6,28.1,33.7,24.2,17.4,85,51,22,30.22,30.11,6,1,9,15.84
2013-3-31,51.8,45.3,34.6,41.1,39.3,20.0,88,80,55,30.17,29.74,5,1,6,17.08
2013-4-1,61.6,46.3,35.6,49.0,34.0,13.9,93,65,36,29.96,29.69,10,2,10,21.98
2013-4-2,42.7,35.8,27.9,22.1,15.1,11.7,61,43,31,30.12,29.96,9,2,10,22.43
2013-4-3,45.9,36.1,29.9,18.5,14.4,11.1,53,41,29,30.33,30.11,9,2,11,22.42
2013-4-4,57.6,41.3,27.7,31.1,21.1,14.4,60,45,30,30.41,30.12,8,2,9,22.43
2013-4-5,61.7,47.1,36.2,35.1,25.3,20.0,67,45,22,30.11,29.79,14,2,14,22.43
2013-4-6,54.0,41.3,32.2,22.2,18.3,13.5,59,42,21,30.34,30.06,10,2,10,0.00
2013-4-7,65.0,49.8,33.5,42.5,33.3,18.8,74,55,32,30.33,30.02,8,2,8,0.00
2013-4-8,78.1,59.9,42.3,47.9,42.7,36.5,84,57,27,30.12,30.02,6,1,6,0.00
2013-4-9,81.7,65.9,49.5,54.6,44.0,35.9,84,50,21,30.04,29.96,8,1,11,0.00
2013-4-10,84.2,65.1,54.0,58.9,51.0,41.4,90,62,41,30.00,29.86,5,1,8,0.00
2013-4-11,59.9,55.3,46.8,56.5,50.4,42.0,93,84,69,30.06,29.84,6,1,7,0.00
2013-4-12,46.8,42.5,40.7,42.0,39.7,38.5,93,90,77,30.04,29.76,8,2,9,0.00
2013-4-13,58.0,48.5,37.8,46.2,37.6,33.6,94,69,45,30.02,29.79,6,1,8,0.00
2013-4-14,57.8,49.4,39.2,38.1,33.5,29.4,83,56,37,30.25,30.01,7,1,10,0.00
2013-4-15,64.4,49.8,40.9,40.7,33.4,28.0,69,54,40,30.41,30.25,5,1,6,0.00
2013-4-16,71.3,58.7,45.9,56.0,48.5,37.5,82,70,55,30.40,30.16,6,1,8,0.00
2013-4-17,72.0,60.5,50.0,55.3,42.7,34.0,86,56,28,30.34,30.17,9,2,9,0.00
2013-4-18,57.6,50.8,44.1,49.1,42.8,35.6,89,75,60,30.37,30.14,5,1,6,0.00
2013-4-19,76.9,64.1,52.2,65.8,59.0,49.1,93,84,66,30.14,29.69,8,2,9,0.00
2013-4-20,57.4,50.8,43.7,51.0,35.7,24.0,91,59,36,30.35,29.75,8,2,9,0.00
2013-4-21,55.8,44.4,33.5,31.0,25.2,20.7,62,48,33,30.64,30.35,6,1,8,0.00
2013-4-22,55.1,44.6,32.4,38.1,31.7,25.5,80,61,49,30.68,30.51,10,1,10,0.00
2013-4-23,50.6,43.9,38.3,42.0,36.2,30.8,81,74,70,30.51,30.16,6,2,9,0.00
2013-4-24,73.3,55.9,35.3,55.1,45.6,31.1,90,70,52,30.16,29.86,9,1,9,0.00
2013-4-25,66.2,54.0,42.5,53.0,32.9,24.8,82,47,23,30.31,29.91,9,2,9,0.00
2013-4-26,65.2,53.4,37.8,38.0,30.8,24.2,72,45,22,30.45,30.31,8,2,11,0.00
2013-4-27,71.1,56.3,37.6,42.8,33.5,27.3,71,44,26,30.47,30.31,6,1,7,0.00
2013-4-28,78.1,57.9,39.2,50.7,38.2,31.1,77,50,32,30.36,30.23,6,1,6,0.00
2013-4-29,54.9,52.2,50.8,49.1,46.2,37.1,90,81,51,30.28,30.22,3,1,6,10.44
2013-4-30,58.5,50.4,43.0,50.9,44.0,29.6,91,80,45,30.38,30.24,5,0,5,0.00
2013-5-1,75.1,54.5,36.7,45.6,37.4,29.9,80,55,26,30.52,30.38,8,1,8,0.00
2013-5-2,77.8,58.5,38.5,52.8,42.3,33.4,88,58,37,30.51,30.37,4,1,6,0.00
2013-5-3,69.3,57.2,45.0,45.6,39.4,35.0,72,53,34,30.49,30.40,8,1,10,0.00
2013-5-4,74.2,55.7,40.7,48.1,41.2,35.3,87,61,37,30.42,30.27,7,1,10,0.00
2013-5-5,70.9,51.9,38.5,47.8,39.7,33.3,85,65,40,30.34,30.25,7,1,7,0.00
2013-5-6,71.1,55.8,39.2,56.1,46.6,33.7,85,72,56,30.30,30.20,5,1,7,0.00
2013-5-7,77.9,59.9,44.6,59.2,51.3,41.3,91,75,51,30.22,30.14,5,1,9,0.00
2013-5-8,68.0,62.3,55.1,63.4,58.2,51.6,93,87,82,30.14,30.01,3,1,5,0.00
2013-5-9,66.1,58.4,53.3,60.1,54.5,50.7,94,87,71,30.05,29.95,3,0,12,0.00
2013-5-10,79.2,62.6,49.7,63.3,55.5,47.7,96,79,52,30.06,29.96,4,0,5,0.00
2013-5-11,70.9,64.5,61.4,65.8,61.6,58.7,95,90,82,29.98,29.77,3,0,4,0.00
2013-5-12,65.5,58.6,47.9,59.4,41.7,28.3,95,57,29,29.99,29.73,9,2,9,0.00
2013-5-13,53.5,47.4,38.2,34.3,30.5,27.6,71,53,39,30.16,29.99,6,1,6,0.00
2013-5-14,61.2,49.3,36.9,34.8,30.4,22.1,78,52,24,30.19,30.07,5,1,6,0.00
2013-5-15,73.6,57.7,39.4,58.2,47.0,30.5,80,68,57,30.12,29.74,3,0,6,0.00
2013-5-16,82.6,67.9,54.7,61.7,53.6,42.2,89,63,31,29.92,29.78,4,0,5,0.00
2013-5-17,73.8,62.6,53.8,46.4,42.4,39.3,65,49,32,30.25,29.92,4,1,9,0.00
2013-5-18,62.3,56.0,48.6,53.9,48.0,41.1,82,75,66,30.35,30.25,3,0,4,0.00
2013-5-19,58.7,56.8,55.1,56.4,54.6,52.5,95,92,88,30.35,30.22,3,0,3,0.00
2013-5-20,81.0,66.1,57.1,70.5,61.9,55.6,98,87,66,30.23,30.03,3,0,5,0.00
2013-5-21,86.8,73.4,59.2,76.3,66.9,57.3,98,81,64,30.04,29.92,5,1,5,0.00
2013-5-22,84.2,71.7,64.6,74.7,67.2,62.3,95,86,69,29.99,29.89,3,0,6,0.00
2013-5-23,77.4,70.1,66.8,72.7,67.7,64.7,97,92,75,29.95,29.80,3,0,5,0.00
2013-5-24,67.1,57.9,47.9,66.3,56.2,45.2,97,94,84,29.91,29.75,11,1,11,0.00
2013-5-25,51.8,50.8,49.1,39.0,37.9,36.8,68,61,57,30.07,30.06,4,2,7,0.00
2013-5-26,67.3,54.8,44.1,41.2,38.0,33.6,80,56,31,30.26,30.04,7,2,8,0.00
2013-5-27,75.6,57.2,40.0,46.0,41.0,34.3,84,58,32,30.30,30.18,5,0,5,0.00
2013-5-28,61.4,54.8,47.2,54.6,49.7,41.9,93,83,70,30.27,30.18,2,0,4,0.00
2013-5-29,84.2,67.1,56.7,72.4,62.5,54.7,98,86,62,30.18,30.07,3,0,4,0.00
2013-5-30,92.5,77.4,64.4,74.5,65.8,61.9,96,71,42,30.21,30.13,3,0,4,0.00
2013-5-31,94.7,79.4,63.4,78.5,66.6,59.8,94,67,45,30.20,30.06,5,0,5,0.00
2013-6-1,93.1,77.7,63.4,76.5,67.3,59.5,96,72,56,30.10,29.97,3,0,4,0.00
2013-6-2,88.2,75.5,67.3,74.2,67.8,64.1,92,78,59,29.99,29.85,5,0,6,0.00
2013-6-3,79.6,72.3,67.3,70.6,65.9,59.1,96,82,59,29.93,29.87,3,0,4,0.00
2013-6-4,76.1,68.4,56.7,49.9,47.3,44.9,68,48,34,30.18,30.06,5,1,7,0.00
2013-6-5,79.0,63.7,48.8,57.9,48.3,40.7,78,59,42,30.26,30.17,4,1,5,0.00
2013-6-6,73.1,61.0,51.8,60.5,54.5,47.1,92,80,56,30.20,30.05,5,1,6,0.00
2013-6-7,62.3,60.7,59.4,61.1,59.3,57.3,96,95,92,30.05,29.69,4,1,5,0.00
2013-6-8,75.4,66.4,57.1,65.7,61.1,55.6,97,84,68,30.12,29.67,4,1,5,0.00
2013-6-9,79.4,69.0,56.9,64.7,59.5,54.2,94,73,52,30.23,30.12,3,0,4,0.00
2013-6-10,67.0,64.6,62.8,64.4,61.8,58.2,97,91,83,30.22,29.87,5,1,5,0.26
2013-6-11,78.5,70.7,63.4,68.5,64.9,60.0,99,83,66,29.87,29.71,7,1,8,0.00
2013-6-12,77.8,69.2,60.1,61.3,57.4,53.3,83,67,50,29.92,29.79,5,1,10,0.00
2013-6-13,61.9,60.1,56.3,60.3,57.3,53.7,97,90,82,29.91,29.51,5,1,7,0.00
2013-6-14,71.6,59.5,53.1,62.4,54.8,50.1,93,85,65,29.96,29.61,7,1,7,0.00
2013-6-15,81.9,68.2,58.9,64.0,57.2,54.3,90,70,45,30.08,29.96,4,1,4,0.00
2013-6-16,79.9,66.5,55.1,65.5,58.3,51.2,90,76,54,30.06,29.86,4,0,5,0.00
2013-6-17,86.2,72.4,60.7,73.2,65.2,58.1,95,79,54,29.98,29.91,2,0,3,0.00
2013-6-18,90.4,69.6,61.0,75.6,64.5,59.0,95,85,58,29.97,29.88,3,0,3,0.00
2013-6-19,77.2,66.8,58.0,59.9,54.8,51.0,92,68,41,30.23,29.95,3,1,4,0.00
2013-6-20,58.7,58.2,57.2,52.9,52.6,52.1,83,82,81,30.24,30.22,0,0,0,0.00
2013-6-21,84.4,76.4,63.7,67.1,60.5,55.8,78,59,49,30.36,30.29,2,1,5,0.00
2013-6-22,84.2,71.4,55.8,70.8,61.3,51.7,88,72,55,30.32,30.19,3,0,3,0.00
2013-6-23,89.3,75.7,62.6,74.6,67.4,60.0,94,77,58,30.26,30.13,4,1,5,0.00
2013-6-24,90.9,77.6,69.5,73.8,69.1,64.0,97,77,47,30.15,30.03,3,0,3,0.00
2013-6-25,90.0,80.9,66.6,75.8,70.5,64.2,96,72,56,30.08,29.89,3,1,5,0.00
2013-6-26,75.6,71.2,69.3,69.3,68.3,66.5,94,91,76,29.93,29.87,1,0,1,0.00
2013-6-28,83.9,79.4,71.3,72.5,69.2,64.8,93,71,62,29.61,29.55,2,1,5,0.00
2013-6-29,84.2,75.4,65.5,70.9,66.3,62.6,93,75,54,29.76,29.55,5,0,5,0.00
2013-6-30,81.7,68.4,65.2,76.1,64.6,62.0,93,88,83,29.98,29.78,1,0,1,0.00
2013-7-1,77.2,74.1,70.9,74.8,71.8,68.8,96,93,88,30.10,29.96,3,0,4,0.00
2013-7-2,82.4,76.4,72.9,77.4,73.2,70.2,96,90,79,30.24,30.10,4,0,4,0.00
2013-7-3,84.8,76.0,70.4,77.8,72.4,68.5,96,89,73,30.31,30.23,2,0,3,0.00
2013-7-4,89.3,79.3,72.5,78.0,73.3,69.8,98,83,65,30.32,30.22,3,0,4,0.00
2013-7-5,90.9,80.0,70.4,78.7,72.0,68.0,95,78,54,30.28,30.17,4,0,4,0.00
2013-7-6,91.6,81.6,71.8,76.4,72.6,69.2,97,76,55,30.22,30.11,3,1,5,0.00
2013-7-7,95.4,82.2,71.6,82.3,73.7,67.7,95,77,59,30.15,30.01,3,0,4,0.00
2013-7-10,75.2,75.1,75.1,71.2,71.1,71.0,87,87,87,29.91,29.90,0,0,0,0.00
2013-7-11,82.8,76.8,70.9,73.8,69.5,62.1,96,79,65,30.00,29.88,3,0,4,0.00
2013-7-12,76.9,72.1,68.0,68.6,65.7,61.6,94,81,74,30.15,29.99,3,1,5,0.00
2013-7-13,68.0,67.1,66.4,66.3,65.4,64.6,95,94,94,30.17,30.15,3,1,3,0.00
2013-7-14,90.9,80.3,74.0,76.7,73.6,70.5,98,81,58,30.40,30.31,4,0,4,0.00
2013-7-15,92.2,81.7,70.6,77.1,72.6,68.1,95,75,56,30.32,30.22,4,0,5,0.00
2013-7-16,92.5,81.7,72.0,74.2,70.5,68.1,89,70,49,30.28,30.21,5,1,5,0.00
2013-7-17,93.8,82.3,71.6,76.1,71.1,67.9,89,71,48,30.27,30.14,3,0,3,0.00
2013-7-18,95.2,83.0,72.5,77.3,72.8,69.5,93,73,48,30.15,30.04,5,0,5,0.00
2013-7-19,95.2,83.7,73.3,80.8,74.9,70.5,92,76,55,30.05,29.88,5,0,5,0.00
2013-7-20,90.4,82.3,73.3,77.2,72.3,68.0,90,73,52,29.92,29.81,5,1,5,0.00
2013-7-21,91.3,80.2,71.3,71.7,69.1,64.5,90,70,51,30.03,29.91,4,0,5,0.00
2013-7-22,74.5,71.4,69.1,72.2,66.9,64.4,93,86,81,30.03,29.87,0,0,0,0.00
2013-7-23,85.5,77.2,70.6,76.0,72.0,66.8,97,85,70,29.86,29.65,2,0,4,0.00
2013-7-24,78.5,71.9,63.9,68.5,63.6,53.3,94,76,56,30.00,29.70,4,1,7,0.00
2013-7-25,68.2,64.3,60.7,59.9,55.7,51.8,81,74,69,30.11,29.99,3,1,5,0.00
2013-7-26,83.2,71.2,63.2,66.3,61.0,57.6,84,72,49,30.11,30.06,4,0,4,0.00
2013-7-27,87.3,71.5,58.3,71.6,61.9,55.1,92,73,54,30.12,30.01,4,0,5,0.00
2013-7-28,76.5,69.4,64.8,70.8,64.7,60.2,91,85,77,30.04,29.98,2,0,8,0.00
2013-8-2,81.7,71.9,61.6,68.0,63.9,59.9,96,78,53,29.99,29.86,3,0,5,0.00
2013-8-3,78.1,68.1,63.4,68.8,63.2,58.4,94,84,73,29.98,29.91,2,0,2,0.00
2013-8-4,76.3,68.9,59.4,63.5,58.2,52.7,93,70,52,30.05,29.93,6,1,6,0.00
2013-8-5,77.0,66.1,54.9,58.1,53.1,48.3,86,65,44,30.13,30.04,5,1,5,44.03
2013-8-6,61.2,60.4,59.4,55.4,54.8,54.1,83,82,81,30.11,30.10,0,0,0,2.59
2013-8-7,79.0,69.8,63.7,69.6,65.1,59.0,92,85,68,30.19,30.12,5,0,5,0.00
2013-8-8,83.2,73.3,69.1,76.1,70.2,67.0,96,90,76,30.13,30.05,3,0,4,0.00
2013-8-9,83.5,75.8,71.8,76.5,72.9,70.0,97,91,77,30.07,29.88,3,0,3,0.00
2013-8-10,81.0,75.0,66.8,71.0,65.5,59.3,95,73,58,30.12,29.94,4,1,4,0.00
2013-8-11,80.1,70.2,58.1,65.6,59.6,53.6,87,70,51,30.19,30.09,2,0,2,0.00
2013-8-12,83.2,72.1,66.4,68.1,64.6,61.9,94,78,56,30.10,30.00,2,0,3,0.00
2013-8-13,79.2,70.0,65.3,71.7,66.2,61.8,94,88,77,30.00,29.77,3,0,3,0.00
2013-8-14,71.8,63.9,55.3,63.4,53.6,49.5,91,70,54,30.12,29.84,6,1,6,0.00
2013-8-15,77.0,65.2,50.9,58.4,52.4,46.8,89,66,42,30.20,30.12,4,0,4,0.00
2013-8-16,80.6,66.3,52.2,62.3,55.1,48.7,91,69,46,30.27,30.18,3,0,3,0.00
2013-8-18,73.4,68.6,63.4,64.0,62.0,59.1,88,80,69,30.31,30.20,1,0,1,0.00
2013-8-19,76.9,68.2,60.1,67.4,62.2,58.1,94,82,67,30.20,30.11,2,0,2,0.00
2013-8-20,85.7,73.1,61.6,70.7,64.3,59.2,95,76,50,30.20,30.12,3,0,3,0.00
2013-8-21,89.6,74.0,61.4,69.6,63.9,58.1,93,73,43,30.25,30.13,3,0,3,0.00
2013-8-22,77.4,70.1,66.6,73.6,67.3,62.9,96,91,85,30.14,29.95,4,0,4,0.00
2013-8-23,79.6,72.1,67.0,67.0,62.6,55.6,94,74,50,30.17,29.95,4,1,5,0.00
2013-8-24,83.9,69.1,58.0,61.9,54.7,50.9,82,62,42,30.41,30.17,4,1,4,0.00
2013-8-25,87.8,67.1,54.0,66.1,56.2,50.4,92,70,40,30.45,30.30,4,0,4,12.95
2013-8-26,79.4,69.2,60.8,69.3,62.8,55.9,91,80,66,30.30,29.99,2,0,3,49.21
2013-8-27,83.9,75.5,68.2,72.1,68.1,65.8,95,79,60,29.99,29.90,4,0,4,56.98
2013-8-28,78.5,72.1,65.5,72.2,68.8,62.6,94,90,81,29.97,29.91,2,0,2,2.59
2013-8-29,78.8,72.1,67.9,72.7,68.3,65.3,95,88,76,30.10,29.96,2,0,2,2.59
2013-8-30,81.2,73.0,67.3,72.5,67.9,64.9,94,85,67,30.10,29.93,3,0,3,0.00
2013-8-31,84.1,75.7,70.2,76.2,71.7,68.0,95,87,76,29.94,29.86,3,0,3,0.00
2013-9-1,83.9,76.0,71.3,76.3,71.9,68.3,96,87,72,29.92,29.86,3,0,3,0.00
2013-9-2,76.3,72.7,69.1,74.4,70.7,66.7,96,93,89,29.88,29.78,1,0,2,0.00
2013-9-3,78.1,70.8,63.4,69.0,63.1,56.7,97,79,51,29.96,29.78,5,1,5,0.00
2013-9-4,78.5,67.4,56.5,62.9,58.1,53.0,92,73,52,30.07,29.95,4,0,4,0.00
2013-9-5,74.0,64.4,55.1,63.2,54.0,47.3,93,71,42,30.21,29.99,3,0,5,0.00
2013-9-6,74.3,59.8,49.1,53.4,45.8,42.9,81,61,41,30.31,30.19,4,1,4,0.00
2013-9-7,78.3,61.9,46.1,57.3,50.2,42.0,91,68,39,30.19,29.97,5,0,5,0.00
2013-9-8,77.4,67.4,59.0,66.2,56.5,46.2,90,69,47,30.14,29.89,5,1,5,0.00
2013-9-9,77.9,63.1,47.7,58.7,51.6,42.1,83,67,48,30.29,30.14,3,0,3,0.00
2013-9-10,83.9,72.4,64.3,74.7,67.1,58.3,95,84,72,30.22,30.12,3,0,3,0.00
2013-9-11,97.6,80.1,69.7,82.5,73.6,67.7,97,82,61,30.19,30.06,3,0,4,0.00
2013-9-12,82.4,73.7,67.5,76.5,70.2,65.2,96,89,75,30.06,29.77,4,0,4,0.00
2013-9-13,72.5,65.7,56.2,66.1,58.9,49.0,96,80,59,29.92,29.71,4,1,6,0.00
2013-9-14,62.5,55.6,46.3,49.8,46.9,42.5,91,73,62,30.18,29.92,6,1,6,0.00
2013-9-15,68.8,56.2,42.8,53.6,47.0,39.5,92,73,45,30.27,30.14,3,0,3,0.00
2013-9-16,69.7,60.8,53.5,57.1,52.8,48.2,93,76,58,30.30,30.09,4,1,5,0.00
2013-9-17,69.1,54.8,45.0,48.2,42.7,39.0,81,65,43,30.48,30.30,5,1,5,0.00
2013-9-18,71.3,54.9,41.6,52.9,44.4,37.4,90,70,45,30.40,30.24,3,0,3,0.00
2013-9-19,77.8,58.0,42.8,57.7,47.9,38.7,93,71,46,30.25,30.13,3,0,3,0.00
2013-9-20,87.1,65.1,48.1,68.5,55.1,44.8,92,72,47,30.14,30.04,3,0,3,0.00
2013-9-21,76.7,64.4,51.5,66.3,57.8,48.0,92,80,57,30.07,29.73,4,0,5,0.00
2013-9-22,65.0,60.0,52.9,59.9,50.9,41.6,93,73,54,29.98,29.72,4,1,5,0.00
2013-9-23,61.9,54.5,46.1,46.2,43.2,40.0,80,66,53,30.09,29.98,6,1,8,0.00
2013-9-24,70.4,58.2,46.4,48.8,45.6,40.1,80,64,45,30.10,29.94,4,1,4,0.00
2013-9-25,69.1,57.7,45.0,52.1,46.2,39.2,84,67,48,30.02,29.94,4,0,4,0.00
2013-9-26,73.8,58.4,46.4,63.9,51.9,42.8,92,79,65,30.16,29.99,4,0,4,0.00
2013-9-27,76.7,59.1,48.8,60.7,51.1,45.3,91,76,52,30.32,30.15,3,0,3,0.00
2013-9-28,78.5,62.1,50.4,61.5,52.1,46.6,91,72,47,30.38,30.30,4,0,4,0.00
2013-9-30,73.3,65.2,51.5,59.1,53.2,47.3,86,66,50,30.13,30.04,2,0,2,0.00
2013-10-1,76.9,59.5,48.6,64.4,52.8,45.9,93,80,58,30.07,30.00,3,0,3,0.00
2013-10-2,81.2,72.9,60.7,64.3,61.5,56.5,86,68,55,30.09,29.99,3,1,5,0.00
2013-10-3,77.2,65.1,52.6,67.2,57.9,49.7,93,79,51,30.18,30.09,2,0,2,0.00
2013-10-4,85.9,69.5,58.0,73.2,62.3,54.7,94,79,58,30.13,30.04,3,0,3,0.00
2013-10-5,78.1,69.7,64.3,71.5,65.1,61.6,94,85,76,30.16,30.08,4,0,4,0.00
2013-10-6,67.5,66.0,64.4,66.4,64.4,62.2,97,94,89,30.15,30.08,3,1,3,0.00
2013-10-7,73.3,65.9,55.8,70.9,63.6,48.6,97,92,73,30.07,29.80,4,1,5,0.00
2013-10-8,65.9,55.5,45.9,54.2,47.8,43.7,94,77,55,30.37,30.04,4,0,4,0.00
2013-10-9,60.5,53.3,47.2,48.7,45.5,41.0,84,75,63,30.44,30.33,5,0,5,0.00
2013-10-10,60.8,56.7,52.0,54.7,51.1,45.7,88,81,76,30.33,30.12,5,1,5,0.00
2013-10-11,64.8,62.2,59.0,60.6,57.3,53.6,89,84,81,30.14,30.06,5,1,5,0.00
2013-10-12,72.4,62.6,57.8,57.8,48.4,42.2,81,61,41,30.24,30.12,4,1,4,0.00
2013-10-13,63.2,63.2,63.2,52.8,52.8,52.8,69,69,69,30.38,30.38,1,1,1,0.00
2013-10-17,65.9,64.7,64.1,62.0,61.3,60.2,91,88,83,29.79,29.74,2,0,2,0.00
2013-10-18,63.9,58.1,52.7,62.3,51.9,45.7,95,80,73,29.92,29.74,5,2,5,0.00
2013-10-21,65.2,55.9,46.3,44.4,41.1,39.1,77,59,42,30.12,30.03,4,0,4,0.00
2013-10-22,63.7,50.0,41.0,54.9,42.9,35.9,94,77,60,30.03,29.81,3,0,3,0.00
2013-10-23,57.2,44.6,36.7,47.2,37.3,32.3,87,76,58,29.86,29.68,3,0,3,0.00
2013-10-24,51.3,42.6,34.0,36.5,31.9,27.1,88,68,44,30.05,29.81,6,1,6,0.00
2013-10-25,51.7,40.6,29.9,36.3,30.3,25.4,89,68,45,30.27,30.05,5,1,8,0.00
2013-10-26,54.4,37.3,28.8,44.0,29.4,24.8,89,75,46,30.27,30.07,4,1,5,0.00
2013-11-1,58.1,52.6,49.7,54.0,48.3,45.9,88,85,83,29.76,29.71,1,0,1,0.00
2013-11-2,70.0,54.2,43.6,58.1,45.6,36.6,91,74,49,29.85,29.69,4,0,4,0.00
2013-11-3,47.9,42.7,32.9,42.3,31.7,21.6,87,66,43,30.48,29.84,9,2,9,0.00
2013-11-4,47.2,36.5,29.3,26.6,21.9,19.7,70,56,37,30.68,30.48,9,1,9,0.00
2013-11-5,36.4,32.1,30.8,31.3,24.5,22.1,82,73,70,30.68,30.63,1,0,2,0.00
2013-11-6,61.0,55.1,49.1,49.6,47.4,44.3,84,75,65,30.28,30.12,2,0,5,0.00
2013-11-7,58.9,50.2,33.7,55.8,45.7,28.4,93,85,70,30.11,29.82,5,1,6,0.00
2013-11-8,47.5,40.7,33.8,35.1,29.6,25.3,86,66,48,30.25,29.98,5,1,10,0.00
2013-11-9,50.4,38.4,27.2,36.2,28.1,22.2,87,68,46,30.32,30.03,4,0,5,0.00
2013-11-10,58.3,44.6,31.7,39.4,32.4,26.8,86,64,44,30.10,29.88,12,2,12,0.00
2013-11-11,52.9,45.5,34.0,35.3,30.8,22.7,69,56,46,30.25,30.00,8,1,8,0.00
2013-11-12,49.0,36.2,27.9,35.6,24.5,17.9,79,63,53,30.32,29.96,13,2,13,0.00
2013-11-13,38.2,29.9,24.1,18.9,16.6,14.3,72,58,40,30.40,30.30,9,1,13,0.00
2013-11-14,50.4,36.8,24.1,24.1,19.7,15.4,75,52,29,30.29,30.20,6,1,6,0.00
2013-11-15,56.7,41.4,27.7,36.2,25.8,17.4,72,55,37,30.28,30.19,4,0,4,0.00
2013-11-16,65.9,48.3,36.4,53.2,39.1,27.5,86,71,51,30.36,30.27,3,0,4,0.00
2013-11-17,58.0,52.4,47.2,56.0,49.6,42.9,93,90,85,30.30,29.90,2,0,3,0.00
2013-11-18,62.5,57.1,48.1,60.3,42.0,27.5,95,60,36,29.84,29.65,8,2,8,0.00
2013-11-19,47.9,41.4,34.0,29.8,26.0,22.3,62,54,47,30.37,29.83,9,3,12,0.00
2013-11-20,48.4,34.4,25.4,23.1,18.3,12.9,65,53,31,30.63,30.36,12,2,14,0.00
2013-11-21,46.4,42.1,25.4,37.9,33.4,14.3,76,71,62,30.63,30.41,0,0,1,0.00
2013-11-22,54.7,49.0,45.0,49.0,43.8,37.9,92,82,76,30.42,29.95,3,0,3,0.00
2013-11-23,52.4,42.0,35.6,47.6,28.4,21.5,85,59,42,30.06,29.93,9,4,12,0.00
2013-11-24,22.3,22.1,21.8,8.2,7.7,6.8,55,54,51,30.41,30.39,3,2,4,0.00
2013-11-25,37.1,27.4,17.5,19.7,13.3,6.3,64,55,46,30.49,30.35,4,1,4,0.00
2013-11-26,41.2,33.3,29.9,38.8,24.3,16.0,91,70,56,30.35,29.78,5,1,5,0.00
2013-11-27,58.3,42.5,32.2,56.4,38.3,20.7,95,85,62,29.81,29.41,11,2,14,0.00
2013-11-28,33.7,29.7,26.3,20.3,15.5,12.2,66,56,42,30.49,29.81,12,2,12,0.00
2013-11-29,37.6,30.2,24.8,23.7,19.8,15.7,77,65,54,30.75,30.48,6,1,6,0.00
2013-11-30,36.4,29.4,21.2,25.4,19.0,11.4,73,65,57,30.76,30.40,5,1,6,0.00
2013-12-1,50.0,38.0,28.8,37.3,29.4,23.7,85,71,56,30.40,30.05,3,0,3,0.00
2013-12-2,47.2,37.8,29.7,36.4,30.4,24.8,82,75,59,30.05,29.92,2,0,2,0.00
2013-12-3,52.9,38.1,28.8,39.8,30.8,24.7,90,76,53,30.05,29.92,4,0,4,0.00
2013-12-4,54.4,42.5,31.7,45.6,36.3,27.4,89,79,69,30.17,30.05,3,0,3,0.00
2013-12-5,54.4,49.4,44.6,52.9,46.8,40.4,95,91,80,30.16,29.99,2,0,3,0.00
2013-12-6,56.3,42.4,36.7,54.9,39.4,34.0,95,89,85,30.19,29.92,6,2,9,0.00
2013-12-7,37.8,34.0,28.3,34.0,27.7,19.0,90,78,62,30.54,30.12,10,1,12,0.00
2013-12-8,31.0,28.1,26.1,25.5,20.2,16.7,87,72,63,30.61,30.39,5,1,6,0.00
2013-12-9,35.6,32.8,29.2,33.8,30.5,25.7,94,91,87,30.38,30.01,8,1,8,0.00
2013-12-10,33.5,29.1,18.5,31.3,26.6,15.4,93,90,85,30.13,29.90,1,0,4,0.00
2013-12-11,32.6,23.2,14.6,22.2,16.3,11.4,90,76,56,30.32,30.14,5,0,6,0.00
2013-12-12,27.5,22.4,17.6,17.2,10.7,6.9,77,61,47,30.32,30.10,10,2,10,0.00
2013-12-13,30.6,17.5,10.6,18.0,8.9,3.6,76,69,56,30.15,29.29,5,0,5,0.00
2013-12-15,37.1,32.2,26.8,32.7,27.6,20.8,92,83,70,29.40,29.11,6,1,10,0.00
2013-12-16,29.7,23.5,13.0,23.0,12.3,5.2,77,62,48,29.77,29.39,8,1,12,0.00
2013-12-17,27.4,20.9,13.9,23.4,15.9,7.1,86,81,72,29.77,29.49,2,0,4,0.00
2013-12-18,35.1,25.7,17.1,24.3,18.8,12.9,88,75,60,29.74,29.48,7,1,9,0.00
2013-12-19,44.1,28.4,15.3,32.0,20.8,10.7,87,74,57,29.73,29.59,2,0,4,0.00
2013-12-21,56.5,48.1,41.6,49.0,42.3,37.6,90,81,72,29.57,29.49,3,0,4,0.00
2013-12-22,66.4,59.1,44.5,62.1,56.3,41.8,96,90,83,29.54,29.39,4,1,7,0.00
2013-12-23,57.4,50.7,37.6,56.3,47.9,29.3,96,90,71,29.73,29.50,11,1,13,0.00
2013-12-24,38.2,33.1,23.8,29.7,23.0,11.9,78,66,57,29.90,29.67,11,3,11,0.00
2013-12-25,29.3,22.9,16.9,15.6,11.4,7.8,68,61,53,30.07,29.90,5,1,10,0.00
2013-12-26,33.8,28.2,21.4,27.8,21.7,14.6,81,77,67,29.98,29.72,4,0,4,0.00
2013-12-27,38.7,29.6,21.2,28.5,21.6,16.6,84,73,54,29.90,29.81,5,0,6,0.00
2013-12-28,51.8,35.5,23.6,32.0,24.9,18.9,84,67,43,29.83,29.64,5,1,7,0.00
2013-12-29,41.4,37.4,31.5,39.5,32.7,24.7,94,83,74,29.64,29.02,7,1,12,0.00
2013-12-30,42.7,32.9,21.1,37.5,25.9,11.8,93,76,61,29.74,29.28,8,2,13,0.00
2013-12-31,30.1,24.1,17.5,24.0,14.5,9.6,83,67,54,29.83,29.60,5,1,10,0.00
2014-1-1,32.9,26.4,17.6,22.8,16.9,9.5,77,67,57,29.95,29.79,3,0,5,0.00
2014-1-2,28.8,24.1,15.1,21.0,18.5,11.1,85,79,69,29.78,29.23,13,2,13,0.00